Location: Bohy
(49.9380°N, 13.5753°E)
Time: 21:40:24
(UTC+00:00)

Cosmos 1833 Rocket - Pass Details

Date: 19 May 2025
Orbit: 831 x 839 km, 71.0° (Epoch: 15 June)

Event Time Altitude Azimuth Distance (km) Brightness Sun altitude
Rises 20:22:25 0° 205° (SSW) 3,378 5.6 -11.7°
Reaches altitude 10° 20:24:50 10° 205° (SSW) 2,448 4.8 -11.9°
Maximum altitude 20:30:28 87° 118° (ESE) 847 2.7 -12.5°
Drops below altitude 10° 20:36:09 10° 30° (NNE) 2,464 5.5 -13.0°
Sets 20:38:36 0° 30° (NNE) 3,402 6.2 -13.2°
